Location: Bailleul
(50.3375°N, 2.8513°E)
Time: 20:08:32
(UTC+00:00)

Timation 1 Rocket - Pass Details

Date: 19 April 2021
Orbit: 900 x 907 km, 70.0° (Epoch: 18 May)

Event Time Altitude Azimuth Distance (km) Brightness Sun altitude
Exits shadow 21:35:58 40° 175° (S) 1,304 4.7 -21.8°
Maximum altitude 21:37:58 61° 115° (ESE) 1,020 4.3 -22.0°
Drops below altitude 10° 21:43:50 10° 36° (NE) 2,587 7.0 -22.5°
Sets 21:46:21 0° 33° (NNE) 3,532 7.7 -22.7°
